New Ulm, MN

8:26 PM CST on December 15, 2019 (GMT -0600)
New Ulm Municipal

Weather History for KULM - October, 2019

Change the Weather History Date:

Saturday, October 26, 2019

  Actual Average Record
Temperature  
Mean Temperature 45 °F -  
Max Temperature 55 °F 58 °F 84 °F (1955)
Min Temperature 35 °F 35 °F 15 °F (1988)
Degree Days  
Heating Degree Days 20    
Moisture  
Dew Point 29 °F    
Average Humidity 56    
Maximum Humidity 75    
Minimum Humidity 36    
Precipitation  
Precipitation 0.00 in - - ()
Sea Level Pressure  
Sea Level Pressure 29.79 in    
Wind  
Wind Speed 12 mph ()    
Max Wind Speed 21 mph    
Max Gust Speed 26 mph    
Visibility 10.0 miles    
Events      
Averages and records for this station are not official NWS values.
T = Trace of Precipitation, MM = Missing Value Source: Averaged Metar Reports

Daily Weather History Graph

Daily Weather History Graph

Search for Another Location

Airport or City:

Astronomy

Oct. 26, 2019 Rise Set
Actual Time 7:46 AM CDT 6:16 PM CDT
Civil Twilight 7:17 AM CDT 6:46 PM CDT
Nautical Twilight 6:43 AM CDT 7:20 PM CDT
Astronomical Twilight 6:09 AM CDT 7:53 PM CDT
Moon 5:36 AM CDT (10/26) 5:58 PM CDT (10/26)
Length of Visible Light 11h 29m
Length of Day
10h 29m
Waning Crescent, 3% of the Moon is Illuminated
Oct 26
Waning Crescent
Oct 27
New
Nov 4
First Quarter
Nov 12
Full
Nov 19
Last Quarter

Hourly Weather History & Observations

Time (CDT) Temp. Windchill Dew Point Humidity Pressure Visibility Wind Dir Wind Speed Gust Speed Precip Events Conditions
12:15 AM 41.0 °F 34.3 °F 28.4 °F 61% 30.00 in 10.0 mi South 11.5 mph - N/A   Clear
12:35 AM 39.2 °F 32.0 °F 28.4 °F 65% 30.00 in 10.0 mi South 11.5 mph - N/A   Clear
12:55 AM 39.2 °F 31.2 °F 28.4 °F 65% 29.99 in 10.0 mi South 13.8 mph - N/A   Clear
1:15 AM 39.2 °F 31.6 °F 28.4 °F 65% 29.99 in 10.0 mi South 12.7 mph - N/A   Clear
1:16 AM 39.2 °F 31.6 °F 28.4 °F 65% 29.98 in 10.0 mi South 12.7 mph - N/A   Clear
1:35 AM 39.2 °F 32.0 °F 28.4 °F 65% 29.97 in 10.0 mi South 11.5 mph - N/A   Clear
1:55 AM 39.2 °F 31.2 °F 28.4 °F 65% 29.96 in 10.0 mi South 13.8 mph - N/A   Clear
2:15 AM 39.2 °F 31.6 °F 28.4 °F 65% 29.96 in 10.0 mi South 12.7 mph 17.3 mph N/A   Clear
2:35 AM 39.2 °F 31.6 °F 28.4 °F 65% 29.95 in 10.0 mi South 12.7 mph - N/A   Clear
2:36 AM 39.2 °F 31.6 °F 28.4 °F 65% 29.95 in 10.0 mi South 12.7 mph - N/A   Clear
2:55 AM 37.4 °F 29.8 °F 28.4 °F 70% 29.95 in 10.0 mi South 11.5 mph 18.4 mph N/A   Clear
3:15 AM 39.2 °F 31.2 °F 28.4 °F 65% 29.94 in 10.0 mi South 13.8 mph 18.4 mph N/A   Clear
3:35 AM 39.2 °F 31.2 °F 28.4 °F 65% 29.94 in 10.0 mi South 13.8 mph - N/A   Clear
3:36 AM 39.2 °F 31.6 °F 28.4 °F 65% 29.93 in 10.0 mi South 12.7 mph - N/A   Clear
3:55 AM 39.2 °F 31.2 °F 28.4 °F 65% 29.93 in 10.0 mi South 13.8 mph - N/A   Clear
4:15 AM 39.2 °F 31.2 °F 28.4 °F 65% 29.92 in 10.0 mi South 13.8 mph - N/A   Clear
4:16 AM 39.2 °F 31.2 °F 28.4 °F 65% 29.92 in 10.0 mi South 13.8 mph - N/A   Clear
4:35 AM 39.2 °F 30.5 °F 28.4 °F 65% 29.91 in 10.0 mi South 16.1 mph - N/A   Clear
4:55 AM 39.2 °F 31.2 °F 28.4 °F 65% 29.91 in 10.0 mi South 13.8 mph - N/A   Clear
4:56 AM 39.2 °F 31.2 °F 28.4 °F 65% 29.91 in 10.0 mi South 13.8 mph - N/A   Clear
5:15 AM 37.4 °F 29.3 °F 28.4 °F 70% 29.90 in 10.0 mi South 12.7 mph - N/A   Clear
5:35 AM 39.2 °F 31.6 °F 28.4 °F 65% 29.90 in 10.0 mi South 12.7 mph - N/A   Clear
5:36 AM 39.2 °F 32.0 °F 28.4 °F 65% 29.90 in 10.0 mi South 11.5 mph - N/A   Clear
5:55 AM 39.2 °F 31.2 °F 28.4 °F 65% 29.89 in 10.0 mi South 13.8 mph 18.4 mph N/A   Clear
6:15 AM 37.4 °F 29.3 °F 28.4 °F 70% 29.88 in 10.0 mi South 12.7 mph - N/A   Clear
6:16 AM 37.4 °F 29.3 °F 28.4 °F 70% 29.88 in 10.0 mi South 12.7 mph - N/A   Clear
6:35 AM 37.4 °F 30.3 °F 28.4 °F 70% 29.88 in 10.0 mi South 10.4 mph - N/A   Clear
6:55 AM 37.4 °F 30.3 °F 28.4 °F 70% 29.87 in 10.0 mi South 10.4 mph - N/A   Clear
6:56 AM 37.4 °F 30.3 °F 28.4 °F 70% 29.87 in 10.0 mi South 10.4 mph - N/A   Clear
7:15 AM 35.6 °F 27.5 °F 28.4 °F 75% 29.86 in 10.0 mi South 11.5 mph - N/A   Clear
7:16 AM 35.6 °F 27.5 °F 28.4 °F 75% 29.86 in 10.0 mi South 11.5 mph - N/A   Clear
7:35 AM 35.6 °F 26.6 °F 28.4 °F 75% 29.85 in 10.0 mi South 13.8 mph - N/A   Clear
7:55 AM 35.6 °F 26.6 °F 28.4 °F 75% 29.85 in 10.0 mi South 13.8 mph - N/A   Clear
8:15 AM 37.4 °F 29.3 °F 28.4 °F 70% 29.85 in 10.0 mi South 12.7 mph - N/A   Clear
8:16 AM 37.4 °F 29.3 °F 28.4 °F 70% 29.85 in 10.0 mi South 12.7 mph - N/A   Clear
8:35 AM 37.4 °F 28.9 °F 28.4 °F 70% 29.85 in 10.0 mi South 13.8 mph 18.4 mph N/A   Clear
8:55 AM 39.2 °F 30.5 °F 28.4 °F 65% 29.84 in 10.0 mi South 16.1 mph - N/A   Clear
8:56 AM 39.2 °F 30.8 °F 28.4 °F 65% 29.84 in 10.0 mi South 15.0 mph - N/A   Clear
9:15 AM 39.2 °F 30.8 °F 28.4 °F 65% 29.84 in 10.0 mi South 15.0 mph 20.7 mph N/A   Clear
9:35 AM 42.8 °F 35.1 °F 28.4 °F 57% 29.83 in 10.0 mi South 16.1 mph - N/A   Clear
9:36 AM 42.8 °F 35.1 °F 28.4 °F 57% 29.83 in 10.0 mi South 16.1 mph - N/A   Clear
9:55 AM 42.8 °F 35.4 °F 28.4 °F 57% 29.82 in 10.0 mi South 15.0 mph - N/A   Clear
10:15 AM 44.6 °F 37.4 °F 30.2 °F 57% 29.81 in 10.0 mi South 16.1 mph 19.6 mph N/A   Clear
10:16 AM 44.6 °F 37.4 °F 30.2 °F 57% 29.81 in 10.0 mi South 16.1 mph - N/A   Clear
10:35 AM 46.4 °F 40.1 °F 28.4 °F 50% 29.80 in 10.0 mi South 15.0 mph - N/A   Clear
10:36 AM 46.4 °F 40.1 °F 28.4 °F 50% 29.80 in 10.0 mi South 15.0 mph - N/A   Clear
10:55 AM 48.2 °F - 30.2 °F 50% 29.79 in 10.0 mi South 17.3 mph 23.0 mph N/A   Clear
11:15 AM 48.2 °F - 30.2 °F 50% 29.79 in 10.0 mi South 17.3 mph 21.9 mph N/A   Clear
11:16 AM 48.2 °F - 30.2 °F 50% 29.79 in 10.0 mi South 18.4 mph - N/A   Clear
11:35 AM 48.2 °F - 28.4 °F 46% 29.79 in 10.0 mi South 17.3 mph 23.0 mph N/A   Clear
11:55 AM 51.8 °F - 28.4 °F 41% 29.79 in 10.0 mi South 16.1 mph 24.2 mph N/A   Clear
11:56 AM 51.8 °F - 28.4 °F 41% 29.78 in 10.0 mi South 16.1 mph 24.2 mph N/A   Clear
12:15 PM 51.8 °F - 28.4 °F 41% 29.78 in 10.0 mi South 17.3 mph 20.7 mph N/A   Clear
12:16 PM 51.8 °F - 30.2 °F 44% 29.78 in 10.0 mi SSE 15.0 mph 20.7 mph N/A   Clear
12:35 PM 51.8 °F - 30.2 °F 44% 29.77 in 10.0 mi SSE 17.3 mph 21.9 mph N/A   Clear
12:36 PM 51.8 °F - 30.2 °F 44% 29.77 in 10.0 mi SSE 16.1 mph 21.9 mph N/A   Clear
12:55 PM 53.6 °F - 28.4 °F 38% 29.77 in 10.0 mi SSE 19.6 mph - N/A   Clear
1:15 PM 53.6 °F - 28.4 °F 38% 29.76 in 10.0 mi South 17.3 mph 25.3 mph N/A   Clear
1:16 PM 53.6 °F - 28.4 °F 38% 29.76 in 10.0 mi SSE 18.4 mph 24.2 mph N/A   Clear
1:35 PM 53.6 °F - 28.4 °F 38% 29.75 in 10.0 mi South 16.1 mph 24.2 mph N/A   Clear
1:55 PM 55.4 °F - 28.4 °F 36% 29.74 in 10.0 mi SSE 18.4 mph 24.2 mph N/A   Clear
1:56 PM 55.4 °F - 28.4 °F 36% 29.74 in 10.0 mi SSE 18.4 mph 24.2 mph N/A   Clear
2:15 PM 55.4 °F - 28.4 °F 36% 29.73 in 10.0 mi SSE 20.7 mph 26.5 mph N/A   Clear
2:35 PM 55.4 °F - 30.2 °F 38% 29.72 in 10.0 mi South 17.3 mph 26.5 mph N/A   Clear
2:36 PM 55.4 °F - 30.2 °F 38% 29.72 in 10.0 mi South 18.4 mph 26.5 mph N/A   Clear
2:55 PM 55.4 °F - 30.2 °F 38% 29.70 in 10.0 mi South 17.3 mph - N/A   Clear
3:15 PM 55.4 °F - 30.2 °F 38% 29.70 in 10.0 mi SSE 16.1 mph 23.0 mph N/A   Clear
3:16 PM 55.4 °F - 30.2 °F 38% 29.70 in 10.0 mi SSE 16.1 mph 23.0 mph N/A   Clear
3:35 PM 55.4 °F - 30.2 °F 38% 29.68 in 10.0 mi SSE 15.0 mph - N/A   Clear
3:55 PM 55.4 °F - 30.2 °F 38% 29.67 in 10.0 mi SSE 13.8 mph 21.9 mph N/A   Clear
4:15 PM 55.4 °F - 30.2 °F 38% 29.68 in 10.0 mi SSE 15.0 mph 21.9 mph N/A   Clear
4:35 PM 55.4 °F - 30.2 °F 38% 29.68 in 10.0 mi SSE 13.8 mph - N/A   Clear
4:36 PM 55.4 °F - 30.2 °F 38% 29.67 in 10.0 mi SSE 15.0 mph - N/A   Clear
4:55 PM 53.6 °F - 28.4 °F 38% 29.67 in 10.0 mi SSE 18.4 mph 21.9 mph N/A   Clear
5:15 PM 53.6 °F - 30.2 °F 41% 29.67 in 10.0 mi SSE 15.0 mph 20.7 mph N/A   Clear
5:16 PM 53.6 °F - 30.2 °F 41% 29.67 in 10.0 mi SSE 15.0 mph 20.7 mph N/A   Clear
5:35 PM 51.8 °F - 30.2 °F 44% 29.68 in 10.0 mi SSE 9.2 mph 12.7 mph N/A   Clear
5:55 PM 51.8 °F - 30.2 °F 44% 29.68 in 10.0 mi SSE 8.1 mph - N/A   Clear
5:56 PM 51.8 °F - 30.2 °F 44% 29.68 in 10.0 mi SSE 8.1 mph - N/A   Clear
6:15 PM 48.2 °F - 30.2 °F 50% 29.68 in 10.0 mi SSE 6.9 mph - N/A   Clear
6:35 PM 48.2 °F - 30.2 °F 50% 29.68 in 10.0 mi SSE 8.1 mph - N/A   Clear
6:36 PM 48.2 °F - 30.2 °F 50% 29.69 in 10.0 mi SSE 8.1 mph - N/A   Clear
6:55 PM 46.4 °F 42.4 °F 30.2 °F 53% 29.69 in 10.0 mi SSE 8.1 mph - N/A   Clear
7:15 PM 44.6 °F 42.2 °F 28.4 °F 53% 29.69 in 10.0 mi SSE 4.6 mph - N/A   Clear
7:35 PM 44.6 °F 41.4 °F 28.4 °F 53% 29.70 in 10.0 mi SSE 5.8 mph - N/A   Clear
7:36 PM 44.6 °F 41.4 °F 28.4 °F 53% 29.70 in 10.0 mi SSE 5.8 mph - N/A   Clear
7:55 PM 42.8 °F 39.3 °F 28.4 °F 57% 29.70 in 10.0 mi SSE 5.8 mph - N/A   Clear
8:15 PM 42.8 °F 40.1 °F 28.4 °F 57% 29.70 in 10.0 mi SSE 4.6 mph - N/A   Clear
8:16 PM 42.8 °F 40.1 °F 28.4 °F 57% 29.70 in 10.0 mi SSE 4.6 mph - N/A   Clear
8:35 PM 41.0 °F 38.0 °F 28.4 °F 61% 29.70 in 10.0 mi SSE 4.6 mph - N/A   Clear
8:55 PM 41.0 °F 37.1 °F 28.4 °F 61% 29.69 in 10.0 mi SSE 5.8 mph - N/A   Clear
8:56 PM 42.8 °F 39.3 °F 28.4 °F 57% 29.69 in 10.0 mi SSE 5.8 mph - N/A   Clear
9:15 PM 41.0 °F 35.8 °F 28.4 °F 61% 29.69 in 10.0 mi SSE 8.1 mph - N/A   Clear
9:36 PM 39.2 °F 33.6 °F 28.4 °F 65% 29.69 in 10.0 mi SSE 8.1 mph - N/A   Clear
9:55 PM 37.4 °F 32.1 °F 28.4 °F 70% 29.68 in 10.0 mi SSE 6.9 mph - N/A   Clear
10:15 PM 39.2 °F 35.9 °F 26.6 °F 61% 29.68 in 10.0 mi SSE 4.6 mph - N/A   Clear
10:35 PM 37.4 °F 32.1 °F 26.6 °F 65% 29.68 in 10.0 mi SSE 6.9 mph - N/A   Clear
10:55 PM 37.4 °F 32.8 °F 26.6 °F 65% 29.69 in 10.0 mi South 5.8 mph - N/A   Clear
11:15 PM 37.4 °F 32.1 °F 26.6 °F 65% 29.69 in 10.0 mi SSW 6.9 mph - N/A   Clear
11:16 PM 37.4 °F 32.1 °F 26.6 °F 65% 29.69 in 10.0 mi SSW 6.9 mph - N/A   Clear
11:35 PM 37.4 °F 31.4 °F 26.6 °F 65% 29.70 in 10.0 mi SSW 8.1 mph - N/A   Clear
11:55 PM 39.2 °F 33.6 °F 28.4 °F 65% 29.69 in 10.0 mi SSW 8.1 mph - N/A   Clear
11:56 PM 39.2 °F 33.6 °F 28.4 °F 65% 29.69 in 10.0 mi SSW 8.1 mph - N/A   Clear